Location: Newark
(42.8481°N, 0.4872°E)
Time: 20:19:58
(UTC+00:00)

Transit 4A - Visible Passes

Search period start: 28 October 2020 00:00
Search period end: 07 November 2020 00:00
Orbit: 862 x 982 km, 66.8° (Epoch: 27 October)

Date Brightness Start Highest point End Pass type
(mag) Time Alt. Az. Time Alt. Az. Time Alt. Az.
29 Oct 10.2 17:16:17 10° WNW 17:19:49 15° NNW 17:23:24 10° N visible
30 Oct 10.3 17:27:24 10° NW 17:29:44 12° NNW 17:32:05 10° N visible
03 Nov 10.4 19:57:12 10° N 19:57:29 11° N 19:57:29 11° N visible
04 Nov 10.4 20:05:58 10° N 20:06:31 11° N 20:06:31 11° N visible
05 Nov 10.4 20:14:55 10° N 20:15:34 12° N 20:15:34 12° N visible
06 Nov 10.4 20:23:58 10° NNW 20:24:38 12° N 20:24:38 12° N visible
